20070628,183054,1.990,     NaN,      NaN,20.7200,  NaN,0.3900,66630,2.2,21.435,33.776,47.838,2278.56,NaN,1.083,21.273, NaN, NaN,23.439,   NaN,18.09,1013.77,88.33,17.89,303.2,306.1,3.2,3.2,217.8,218.5,2.6,3.1,46.3, NaN,21.0,271.4,NaN,1183055447,NaN,2,0.5,066647,   NaN,271.2,     NaN,      NaN,0.29,NaN,NaN,21.440, NaN,NaN,2.1, NaN, NaN
20070628,200710,1.067,     NaN,      NaN,21.3500,33.7870,0.6700,72419,2.2,21.525,33.770,47.919,2334.37,NaN,1.989,21.510, NaN, NaN,23.413,   NaN,18.50,1013.70,87.48,18.27,290.4,296.8,3.0,2.5,234.2,236.6,3.0,2.3,22.0, NaN,19.0,308.2,NaN,1183061239,NaN,2,0.7,072439,   NaN,308.4,     NaN,      NaN,0.53,NaN,NaN,21.530, NaN,NaN,0.8, NaN, NaN
20070628,225523,1.063,     NaN,      NaN,20.8000,33.7500,0.2800,82500,2.2,21.179,33.738,47.538,2338.83,NaN,0.717,20.885, NaN, NaN,23.483,   NaN,18.59,1012.87,87.20,18.31,312.3,315.0,2.6,2.8,242.7,268.2,1.9,1.5,18.3, NaN,17.0,292.5,NaN,1183071318,NaN,2,0.9,082519,   NaN,292.5,     NaN,      NaN,0.41,NaN,NaN,21.184, NaN,NaN,-0.1, NaN, NaN
20070629,021121,1.793,     NaN,      NaN,20.2600,33.7270,0.1200,94260,2.1,20.575,33.713,46.909,1105.56,NaN,0.544,20.408, NaN, NaN,23.645,   NaN,19.14,1012.00,86.11,18.97,318.8,322.4,1.3,1.0,236.6,242.8,1.8,1.3,NaN, NaN,18.0,283.3,NaN,1183083079,NaN,2,0.6,007879,   NaN,282.9,     NaN,      NaN,0.47,NaN,NaN,20.580, NaN,NaN,0.7, NaN, NaN
20070629,051508,1.581,     NaN,      NaN,19.5200,33.7340,0.1900,105300,2.2,19.965,33.734,46.335,-8.19,NaN,0.731,19.780, NaN, NaN,23.789,   NaN,18.39,1012.04,91.37,18.22,39.9,32.2,1.5,0.9,313.5,324.6,1.9,0.8,NaN, NaN,19.0,291.5,NaN,1183094119,NaN,2,0.4,018919,   NaN,291.5,     NaN,      NaN,0.31,NaN,NaN,19.970, NaN,NaN,0.7, NaN, NaN
20070629,092417,1.382,     NaN,      NaN,18.9200,33.7020,0.1500,120240,2.1,19.249,33.695,45.584,-9.78,NaN,0.454,19.056, NaN, NaN,23.958,   NaN,17.12,1011.78,93.16,16.95,122.2,97.8,1.8,1.6,222.9,212.4,3.0,1.3,NaN, NaN,16.0,98.0,NaN,1183109059,NaN,2,0.6,033859,   NaN,98.0,     NaN,      NaN,1.14,NaN,NaN,19.254, NaN,NaN,1.8, NaN, NaN
20070629,131607,1.747,     NaN,      NaN,18.4600,33.7300,0.1900,134159,2.1,18.890,33.705,45.245,92.00,NaN,0.626,18.629, NaN, NaN,24.052,   NaN,17.26,1012.35,92.96,16.97,33.2,33.7,2.5,2.1,332.6,338.5,2.3,1.1,NaN, NaN,19.0,278.3,NaN,1183122978,NaN,2,1.2,047778,   NaN,278.2,     NaN,      NaN,0.48,NaN,NaN,18.895, NaN,NaN,2.1, NaN, NaN
20070629,191054,1.635,     NaN,      NaN,18.6100,33.7120,0.2700,155429,2.2,19.059,33.702,45.410,2093.98,NaN,0.549,18.827, NaN, NaN,24.009,   NaN,17.13,1013.96,91.29,17.00,8.1,3.4,3.7,3.8,308.0,301.7,4.4,3.8,1463.0, NaN,20.0,283.0,NaN,1183144248,NaN,2,0.8,069048,   NaN,282.8,     NaN,      NaN,0.26,NaN,NaN,19.064, NaN,NaN,0.6, NaN, NaN
20070629,222612,1.605,     NaN,      NaN,15.8400,33.7240,1.3300,167159,2.1,16.243,33.702,42.682,1818.55,NaN,4.034,16.107, NaN, NaN,24.696,   NaN,14.73,1013.38,99.09,14.60,3.0,359.8,12.0,11.9,317.2,314.0,10.9,10.6,NaN, NaN,19.0,308.8,NaN,1183155978,NaN,2,1.1,080778,   NaN,308.7,     NaN,      NaN,0.80,NaN,NaN,16.247, NaN,NaN,1.8, NaN, NaN
20070630,023821,1.710,     NaN,      NaN,15.5000,33.5560,0.5500,182279,2.1,15.874,33.538,42.142,107.17,NaN,5.188,15.722, NaN, NaN,24.652,   NaN,15.22,1013.40,98.30,15.01,354.2,349.8,10.1,10.6,327.1,325.0,10.4,9.3,NaN, NaN,19.0,319.9,NaN,1183171098,NaN,2,0.7,009498,   NaN,319.8,     NaN,      NaN,0.28,NaN,NaN,15.878, NaN,NaN,0.3, NaN, NaN
20070630,064953,1.688,     NaN,      NaN,15.9700,33.5280,0.3500,197369,2.2,16.320,33.519,42.539,-8.32,NaN,4.723,16.156, NaN, NaN,24.536,   NaN,16.12,1014.58,91.71,15.75,16.2,13.2,10.9,10.8,325.8,323.6,8.5,8.6,NaN, NaN,19.0,307.4,NaN,1183186187,NaN,2,1.4,024588,   NaN,307.4,     NaN,      NaN,0.79,NaN,NaN,16.324, NaN,NaN,0.9, NaN, NaN
20070630,130341,2.136,     NaN,      NaN,15.2600,33.7140,1.6600,219809,2.2,15.606,33.705,42.071,36.59,NaN,9.925,15.472, NaN, NaN,24.841,   NaN,16.00,1015.70,85.66,15.68,21.7,20.9,10.1,9.5,334.8,332.0,10.4,8.7,NaN, NaN,18.0,305.4,NaN,1183208627,NaN,2,1.1,047027,   NaN,305.3,     NaN,      NaN,0.90,NaN,NaN,15.610, NaN,NaN,1.8, NaN, NaN
20070630,194239,2.680,     NaN,      NaN,16.3700,33.5060,0.1900,243749,2.2,16.740,33.490,42.914,2219.18,NaN,0.544,16.533, NaN, NaN,24.416,   NaN,16.86,1017.77,80.16,16.68,1.8,357.8,12.6,12.2,330.7,323.3,11.6,10.5,NaN, NaN,18.0,326.6,NaN,1183232567,NaN,2,1.2,070967,   NaN,326.5,     NaN,      NaN,1.28,NaN,NaN,16.744, NaN,NaN,2.1, NaN, NaN
20070701,015507,1.958,     NaN,      NaN,16.8000,33.3580,0.1000,266100,2.2,17.154,33.344,43.142,1587.75,NaN,0.654,16.930, NaN, NaN,24.207,   NaN,17.08,1016.51,77.39,16.95,17.3,15.8,14.2,13.4,345.7,341.4,13.2,13.3,NaN, NaN,21.0,326.6,NaN,1183254917,NaN,2,1.7,006917,   NaN,326.6,     NaN,      NaN,1.03,NaN,NaN,17.158, NaN,NaN,1.6, NaN, NaN
20070701,080852,0.797,     NaN,      NaN,16.8100,33.2990,0.0700,288509,0.0,20.490,33.303,46.316,-7.56,NaN,3.512,16.941, NaN, NaN,23.339,   NaN,16.70,1017.19,87.52,16.40,10.3,10.5,10.1,10.1,351.7,354.9,8.9,9.3,NaN, NaN,19.0,337.5,NaN,1183277328,NaN,2,1.6,029329,   NaN,337.5,     NaN,      NaN,0.99,NaN,NaN,20.495, NaN,NaN,1.5, NaN, NaN
20070701,143352,1.135,     NaN,      NaN,17.2400,33.2430,0.0000,311609,0.0,20.029,33.355,45.938,1250.23,NaN,1.551,17.414, NaN, NaN,23.505,   NaN,17.23,1018.16,85.31,16.94,4.5,3.4,12.2,12.2,346.6,346.6,9.2,10.7,NaN, NaN,17.0,341.1,NaN,1183300428,NaN,2,2.1,052429,   NaN,341.1,     NaN,      NaN,1.34,NaN,NaN,20.034, NaN,NaN,1.2, NaN, NaN
20070701,205401,2.376,     NaN,      NaN,17.5000,33.3070,0.0700,334409,2.3,17.856,33.287,43.757,2232.84,NaN,0.100,17.655, NaN, NaN,23.993,   NaN,17.81,1019.54,81.32,17.57,350.7,347.4,8.9,9.0,6.9,355.2,7.4,8.4,NaN, NaN,25.0,11.2,NaN,1183323228,NaN,2,1.1,075228,   NaN,11.3,     NaN,      NaN,0.23,NaN,NaN,17.860, NaN,NaN,1.4, NaN, NaN
20070702,032454,1.160,     NaN,      NaN,17.9300,33.5530,0.0500,357870,2.3,18.285,33.549,44.471,14.07,NaN,0.158,18.082, NaN, NaN,24.091,   NaN,17.52,1019.05,85.21,17.37,0.5,357.7,10.4,10.3,127.3,122.7,8.4,10.0,NaN, NaN,22.0,0.5,NaN,1183346688,NaN,2,1.6,012289,   NaN,118.3,     NaN,      NaN,0.63,NaN,NaN,18.289, NaN,NaN,0.9, NaN, NaN
20070702,101445,1.879,     NaN,      NaN,17.5000,33.4920,0.0500,382469,2.3,17.820,33.489,43.950,-9.74,NaN,0.172,17.645, NaN, NaN,24.159,   NaN,17.47,1017.84,85.90,17.29,10.7,7.9,8.9,8.7,346.0,349.3,8.6,7.9,NaN, NaN,17.0,340.6,NaN,1183371287,NaN,2,1.4,036888,   NaN,340.6,     NaN,      NaN,0.59,NaN,NaN,17.824, NaN,NaN,1.4, NaN, NaN
20070702,181448,2.464,     NaN,      NaN,17.2400,33.3540,0.0700,411269,2.3,17.596,33.350,43.574,2190.06,NaN,0.103,17.486, NaN, NaN,24.103,   NaN,17.68,1018.19,87.60,17.41,5.5,2.3,10.9,11.1,337.0,333.8,9.9,10.4,NaN, NaN,20.0,342.1,NaN,1183400087,NaN,2,1.3,065688,   NaN,342.4,     NaN,      NaN,0.87,NaN,NaN,17.600, NaN,NaN,2.5, NaN, NaN
20070702,234938,2.845,     NaN,      NaN,16.7500,33.3570,0.0900,431369,2.3,17.138,33.354,43.139,2181.74,NaN,0.203,16.960, NaN, NaN,24.219,   NaN,17.06,1017.11,93.48,16.88,358.3,352.0,12.8,13.1,344.5,341.3,13.5,12.3,NaN, NaN,20.0,345.5,NaN,1183420187,NaN,2,1.2,085787,   NaN,345.5,     NaN,      NaN,0.65,NaN,NaN,17.142, NaN,NaN,2.0, NaN, NaN
20070703,063854,1.832,     NaN,      NaN,16.3700,33.4880,0.1300,455909,2.3,16.709,33.480,42.876,-9.49,NaN,0.777,16.533, NaN, NaN,24.417,   NaN,15.17,1017.26,NaN,14.98,12.2,9.1,12.9,12.6,337.5,336.4,11.4,12.0,NaN, NaN,19.0,316.4,NaN,1183444727,NaN,2,1.2,023927,   NaN,316.3,     NaN,      NaN,0.85,NaN,NaN,16.713, NaN,NaN,1.1, NaN, NaN
20070703,132423,2.099,     NaN,      NaN,14.1400,33.3430,0.4400,480240,2.3,14.498,33.339,40.617,294.68,NaN,4.053,14.411, NaN, NaN,24.799,   NaN,16.03,1015.02,93.92,15.74,355.8,352.9,9.5,10.0,321.3,314.8,9.2,9.2,NaN, NaN,16.0,321.3,NaN,1183469059,NaN,2,1.3,048259,   NaN,321.3,     NaN,      NaN,1.16,NaN,NaN,14.501, NaN,NaN,0.6, NaN, NaN
20070703,201643,1.448,     NaN,      NaN,14.9300,33.5850,0.4500,504990,2.2,15.315,33.578,41.650,2230.27,NaN,1.456,15.154, NaN, NaN,24.807,   NaN,16.14,1013.89,88.85,15.81,10.4,8.1,12.3,11.6,340.0,334.8,12.0,10.8,NaN, NaN,22.0,320.0,NaN,1183493809,NaN,2,1.3,073009,   NaN,319.9,     NaN,      NaN,0.66,NaN,NaN,15.319, NaN,NaN,1.2, NaN, NaN
20070704,013857,1.982,     NaN,      NaN,15.3600,33.7690,3.3700,524310,2.2,15.755,33.761,42.276,1556.44,NaN,18.474,15.596, NaN, NaN,24.850,   NaN,15.10,1011.16,93.27,14.97,6.4,2.4,12.3,11.8,315.2,309.8,11.7,11.0,NaN, NaN,18.0,310.9,NaN,1183513129,NaN,2,1.7,005929,   NaN,310.9,     NaN,      NaN,1.59,NaN,NaN,15.759, NaN,NaN,2.2, NaN, NaN
20070704,073856,2.495,     NaN,      NaN,16.6600,33.7910,1.2600,545909,2.3,16.990,33.780,43.489,-9.06,NaN,10.326,16.716, NaN, NaN,24.576,   NaN,16.17,1010.34,94.54,15.89,22.8,22.9,5.6,4.8,307.8,306.8,5.1,4.9,NaN, NaN,18.0,284.1,NaN,1183534728,NaN,2,1.3,027528,   NaN,284.2,     NaN,      NaN,0.66,NaN,NaN,16.994, NaN,NaN,0.8, NaN, NaN
20070704,132756,1.628,     NaN,      NaN,19.2100,33.7260,0.4000,566849,2.3,19.566,33.722,45.928,57.37,NaN,1.466,19.255, NaN, NaN,23.900,   NaN,17.08,1009.70,75.72,16.90,309.7,286.9,0.6,0.6,146.0,122.1,0.6,0.4,NaN, NaN,16.0,248.4,NaN,1183555668,NaN,2,0.9,048468,   NaN,248.5,     NaN,      NaN,0.88,NaN,NaN,19.571, NaN,NaN,2.0, NaN, NaN
20070704,161455,1.709,     NaN,      NaN,19.5100,33.7320,0.2200,576869,2.4,19.838,33.713,46.184,1057.97,NaN,0.626,19.612, NaN, NaN,23.821,   NaN,17.12,1010.53,99.95,16.79,31.7,28.4,2.7,2.0,148.6,150.2,2.4,1.8,NaN, NaN,16.0,118.1,NaN,1183565688,NaN,2,0.8,058488,   NaN,118.1,     NaN,      NaN,0.45,NaN,NaN,19.843, NaN,NaN,1.0, NaN, NaN
20070704,202229,1.500,     NaN,      NaN,21.0600,33.7550,0.1600,591719,2.3,21.492,33.756,47.869,2536.69,NaN,0.363,21.055, NaN, NaN,23.408,   NaN,20.62,1010.25,87.16,20.39,75.8,85.6,1.4,2.1,283.9,198.0,0.8,1.9,NaN, NaN,16.0,106.9,NaN,1183580538,NaN,2,0.6,073338,   NaN,107.1,     NaN,      NaN,0.52,NaN,NaN,21.497, NaN,NaN,1.3, NaN, NaN
20070704,225737,1.910,     NaN,      NaN,21.5200,33.7510,0.4300,601049,2.4,21.895,33.748,48.262,2536.22,NaN,1.230,21.628, NaN, NaN,23.314,   NaN,21.51,1009.50,83.28,21.48,137.8,128.8,0.7,0.7,228.7,217.1,0.5,0.6,NaN, NaN,19.0,81.1,NaN,1183589867,NaN,2,0.4,082668,   NaN,81.1,     NaN,      NaN,0.14,NaN,NaN,21.900, NaN,NaN,0.7, NaN, NaN
20070705,003027,1.179,     NaN,      NaN,21.9400,33.7580,1.2300,606599,2.3,22.338,33.754,48.710,1240.21,NaN,4.058,22.197, NaN, NaN,23.176,   NaN,20.53,1008.71,86.89,20.35,291.2,294.3,1.8,1.3,266.7,267.3,1.6,1.5,NaN, NaN,19.0,322.8,NaN,1183595417,NaN,2,0.6,001818,   NaN,322.9,     NaN,      NaN,0.20,NaN,NaN,22.343, NaN,NaN,1.9, NaN, NaN
20070705,025251,1.422,     NaN,      NaN,20.5900,33.6530,0.9800,615149,2.2,21.037,33.646,47.281,51.24,NaN,2.957,20.401, NaN, NaN,23.447,   NaN,19.43,1008.73,95.25,19.14,262.5,228.0,4.7,0.9,227.1,82.0,5.0,0.7,NaN, NaN,17.0,331.1,NaN,1183603967,NaN,2,0.9,010368,   NaN,331.2,     NaN,      NaN,0.37,NaN,NaN,21.042, NaN,NaN,0.2, NaN, NaN
20070705,064153,1.834,     NaN,      NaN,21.6500,33.7340,1.7700,628889,2.2,22.023,33.736,48.374,-8.24,NaN,5.534,21.771, NaN, NaN,23.250,   NaN,19.25,1010.01,93.81,18.99,16.3,9.1,0.8,0.8,119.3,100.4,0.6,0.4,NaN, NaN,17.0,93.9,NaN,1183617707,NaN,2,0.5,024108,   NaN,93.9,     NaN,      NaN,0.20,NaN,NaN,22.028, NaN,NaN,0.6, NaN, NaN
20070705,073135,1.069,     NaN,      NaN,21.4600,33.7480,0.4100,631890,2.2,21.799,33.746,48.164,-9.14,NaN,1.702,21.563, NaN, NaN,23.320,   NaN,19.42,1009.62,89.17,19.13,21.8,20.5,2.1,1.8,276.1,268.6,1.2,1.0,NaN, NaN,17.0,257.3,NaN,1183620708,NaN,2,0.8,027108,   NaN,257.5,     NaN,      NaN,0.14,NaN,NaN,21.804, NaN,NaN,0.8, NaN, NaN
20070705,102555,1.892,     NaN,      NaN,20.3600,  NaN,0.3100,642329,2.2,20.751,33.711,47.083,-8.49,NaN,1.110,20.507, NaN, NaN,23.582,   NaN,18.34,1008.91,94.67,18.12,141.0,143.3,1.6,1.4,235.8,255.7,1.9,1.3,NaN, NaN,12.0,109.0,NaN,1183631147,NaN,2,0.7,037547,   NaN,109.2,     NaN,      NaN,NaN,NaN,NaN,20.756, NaN,NaN,0.8, NaN, NaN
20070705,145645,1.343,     NaN,      NaN,18.6400,33.7440,0.2300,658589,2.2,18.958,33.732,45.344,393.82,NaN,0.920,18.807, NaN, NaN,24.062,   NaN,16.82,1010.00,96.75,16.67,135.6,139.6,3.5,3.2,356.8,357.7,4.2,2.6,NaN, NaN,16.0,221.5,NaN,1183647407,NaN,2,1.0,053807,   NaN,221.5,     NaN,      NaN,1.40,NaN,NaN,18.963, NaN,NaN,0.5, NaN, NaN
20070705,192157,2.330,     NaN,      NaN,17.4700,33.7360,0.4200,674490,0.0,21.103,33.292,46.906,1573.82,NaN,10.557,18.049, NaN, NaN,23.163,   NaN,16.26,1011.73,93.81,16.12,331.1,333.1,2.9,2.9,259.4,260.6,2.0,2.6,NaN, NaN,18.0,290.7,NaN,1183663307,NaN,2,0.8,069707,   NaN,290.8,     NaN,      NaN,0.74,NaN,NaN,21.108, NaN,NaN,0.5, NaN, NaN
20070705,233240,1.603,     NaN,      NaN,15.2000,33.8220,6.9400,689549,2.3,15.590,33.809,42.171,1033.25,NaN,21.273,15.502, NaN, NaN,24.921,   NaN,14.93,1010.56,96.21,14.67,354.0,349.0,8.9,9.6,295.9,290.6,9.8,9.6,NaN, NaN,18.0,297.0,NaN,1183678369,NaN,2,1.2,084769,   NaN,297.0,     NaN,      NaN,1.27,NaN,NaN,15.594, NaN,NaN,1.5, NaN, NaN
20070706,035756,1.972,     NaN,      NaN,15.0600,33.7320,3.1900,705449,2.3,15.422,33.712,41.905,-9.74,NaN,17.497,15.313, NaN, NaN,24.888,   NaN,14.51,1009.29,98.82,14.30,2.5,0.1,13.8,13.6,309.8,305.6,13.9,13.6,NaN, NaN,20.0,312.8,NaN,1183694269,NaN,2,1.2,014269,   NaN,313.0,     NaN,      NaN,0.78,NaN,NaN,15.426, NaN,NaN,2.4, NaN, NaN
20070706,081029,1.483,     NaN,      NaN,15.1900,  NaN,0.4900,720599,2.3,15.532,33.452,41.721,-9.14,NaN,5.069,15.353, NaN, NaN,24.661,   NaN,14.60,1011.86,NaN,26.58,7.5,5.3,10.1,10.1,310.8,310.8,8.6,8.6,NaN, NaN,20.0,307.6,NaN,1183709418,NaN,2,1.4,029419,   NaN,307.6,     NaN,      NaN,0.86,NaN,NaN,15.536, NaN,NaN,1.7, NaN, NaN
20070706,142710,1.912,     NaN,      NaN,15.5100,33.3200,0.3300,743219,2.3,15.835,33.310,41.849,90.10,NaN,3.684,15.655, NaN, NaN,24.485,   NaN,15.46,1013.12,97.16,15.15,18.2,16.0,10.4,10.0,316.0,316.0,9.7,9.5,NaN, NaN,17.0,300.1,NaN,1183732038,NaN,2,1.1,052038,   NaN,300.1,     NaN,      NaN,0.58,NaN,NaN,15.839, NaN,NaN,1.4, NaN, NaN
20070706,211213,2.476,     NaN,      NaN,14.7100,33.5110,0.8900,767521,2.3,15.151,33.497,41.407,1873.71,NaN,2.134,15.036, NaN, NaN,24.783,   NaN,16.49,1014.75,95.01,16.06,33.5,32.8,4.9,4.3,306.9,307.5,4.7,4.0,NaN, NaN,16.0,272.3,NaN,1183756338,NaN,2,1.1,076339,   NaN,272.3,     NaN,      NaN,1.02,NaN,NaN,15.155, NaN,NaN,-0.1, NaN, NaN
20070707,034833,2.197,     NaN,      NaN,14.7400,33.1320,0.6000,791279,2.3,15.110,33.120,40.952,-8.30,NaN,5.741,14.956, NaN, NaN,24.499,   NaN,16.35,1013.94,90.68,16.06,21.1,20.2,10.1,9.6,332.3,332.4,10.2,10.0,NaN, NaN,22.0,317.7,NaN,1183780098,NaN,2,1.0,013698,   NaN,317.7,     NaN,      NaN,0.73,NaN,NaN,15.114, NaN,NaN,1.8, NaN, NaN
20070707,100642,1.090,     NaN,      NaN,17.0500,33.1690,0.1100,813989,2.3,17.363,33.158,43.124,-8.40,NaN,1.075,17.169, NaN, NaN,24.014,   NaN,17.07,1015.49,91.62,16.76,45.8,47.3,8.0,5.1,356.2,10.9,7.1,3.1,NaN, NaN,15.0,319.6,NaN,1183802807,NaN,2,1.1,036408,   NaN,319.8,     NaN,      NaN,1.11,NaN,NaN,17.367, NaN,NaN,1.2, NaN, NaN
20070707,181512,2.723,     NaN,      NaN,17.6700,33.2880,0.0800,843299,2.2,18.003,33.273,43.873,1562.43,NaN,0.258,17.844, NaN, NaN,23.949,   NaN,16.83,1018.25,91.57,16.42,16.9,14.0,12.2,11.8,2.7,359.5,10.8,10.4,NaN, NaN,23.0,343.4,NaN,1183832117,NaN,2,1.4,065717,   NaN,343.5,     NaN,      NaN,0.97,NaN,NaN,18.007, NaN,NaN,3.4, NaN, NaN
20070708,001739,1.283,     NaN,      NaN,17.2500,33.3620,0.1300,865049,2.3,17.604,33.350,43.581,1979.10,NaN,0.763,17.417, NaN, NaN,24.105,   NaN,17.02,1017.65,84.26,16.67,24.2,21.5,11.1,9.8,357.1,358.1,7.9,8.0,NaN, NaN,23.0,337.5,NaN,1183853867,NaN,2,1.4,001067,   NaN,337.5,     NaN,      NaN,0.93,NaN,NaN,17.608, NaN,NaN,0.2, NaN, NaN
20070708,071327,2.477,     NaN,      NaN,16.2300,33.1290,0.2200,889980,2.3,16.566,33.116,42.319,-9.74,NaN,2.931,16.394, NaN, NaN,24.169,   NaN,16.32,1016.68,86.85,16.00,339.8,339.9,10.3,11.0,331.9,335.2,8.6,9.1,NaN, NaN,17.0,356.3,NaN,1183878797,NaN,2,1.0,025997,   NaN,356.3,     NaN,      NaN,0.47,NaN,NaN,16.570, NaN,NaN,1.3, NaN, NaN
20070708,141808,1.748,     NaN,      NaN,14.8800,33.0940,0.5600,915479,2.3,15.230,33.082,41.022,157.15,NaN,5.365,15.105, NaN, NaN,24.445,   NaN,15.95,1015.97,84.57,15.65,353.0,350.5,8.6,9.1,343.3,334.4,7.7,7.0,NaN, NaN,18.0,344.4,NaN,1183904299,NaN,2,1.5,051499,   NaN,344.4,     NaN,      NaN,1.29,NaN,NaN,15.234, NaN,NaN,3.1, NaN, NaN
20070708,210356,2.897,     NaN,      NaN,14.6800,33.1550,1.2000,939810,2.2,15.064,33.141,40.934,1817.55,NaN,2.847,14.901, NaN, NaN,24.521,   NaN,15.97,1015.09,88.79,15.61,321.4,321.1,7.5,6.9,315.8,319.7,6.9,6.0,NaN, NaN,17.0,357.1,NaN,1183928629,NaN,2,1.5,075829,   NaN,353.8,     NaN,      NaN,0.23,NaN,NaN,15.068, NaN,NaN,0.7, NaN, NaN
20070709,042111,2.383,     NaN,      NaN,13.5100,33.2190,0.6500,966059,2.3,13.904,33.200,39.914,-8.84,NaN,5.009,13.787, NaN, NaN,24.816,   NaN,15.61,1013.04,89.26,15.21,331.6,333.1,7.4,8.1,299.7,301.9,7.2,7.7,NaN, NaN,13.0,333.6,NaN,1183954878,NaN,2,0.9,015678,   NaN,333.6,     NaN,      NaN,0.66,NaN,NaN,13.907, NaN,NaN,3.1, NaN, NaN
20070709,111209,1.630,     NaN,      NaN,14.6500,33.7420,0.3700,990720,2.3,14.992,33.725,41.508,-8.44,NaN,2.520,14.827, NaN, NaN,24.990,   NaN,14.62,1012.08,93.30,14.42,26.8,25.5,4.6,4.0,326.0,326.5,4.4,3.8,NaN, NaN,15.0,295.4,NaN,1183979538,NaN,2,1.2,040339,   NaN,295.4,     NaN,      NaN,0.69,NaN,NaN,14.996, NaN,NaN,0.3, NaN, NaN
20070709,153243,1.939,     NaN,      NaN,14.1000,33.7060,2.3400,1006349,2.3,14.458,33.684,40.957,310.34,NaN,8.728,14.352, NaN, NaN,25.074,   NaN,14.05,1013.93,95.16,13.88,118.5,99.3,0.7,0.7,110.9,110.1,2.4,1.1,NaN, NaN,17.0,331.0,NaN,1183995168,NaN,2,1.0,055968,   NaN,330.8,     NaN,      NaN,0.52,NaN,NaN,14.461, NaN,NaN,0.4, NaN, NaN
20070709,190740,1.542,     NaN,      NaN,17.4800,33.7060,0.9200,1019250,2.3,17.851,33.690,44.215,1360.72,NaN,2.616,17.645, NaN, NaN,24.303,   NaN,15.45,1014.36,91.36,15.01,77.2,85.7,1.5,2.2,273.1,273.2,1.6,2.5,NaN, NaN,18.0,173.1,NaN,1184008067,NaN,2,0.9,068868,   NaN,173.1,     NaN,      NaN,0.74,NaN,NaN,17.855, NaN,NaN,1.4, NaN, NaN
20070710,012227,1.171,     NaN,      NaN,17.6200,33.6950,1.5800,1041722,2.3,18.043,33.672,44.381,1557.36,NaN,3.903,17.893, NaN, NaN,24.244,   NaN,17.73,1011.18,91.01,17.48,30.6,29.1,5.2,4.8,294.7,289.8,4.8,4.0,22.7, NaN,18.0,251.5,NaN,1184030540,NaN,2,0.3,004941,   NaN,251.3,     NaN,      NaN,0.34,NaN,NaN,18.047, NaN,NaN,1.1, NaN, NaN
20070710,022645,1.109,     NaN,      NaN,19.0200,33.7320,0.4900,1045593,2.3,19.415,33.711,45.765,696.08,NaN,2.416,19.195, NaN, NaN,23.933,   NaN,17.60,1011.33,88.89,17.44,15.4,12.6,5.1,5.0,281.2,280.2,5.1,4.8,35.8, NaN,14.0,270.6,NaN,1184034411,NaN,2,0.5,008812,   NaN,270.8,     NaN,      NaN,0.40,NaN,NaN,19.420, NaN,NaN,-0.2, NaN, NaN
20070710,042346,1.495,     NaN,      NaN,18.7600,33.7170,0.2500,1052614,2.3,19.101,33.696,45.442,-9.44,NaN,1.398,18.873, NaN, NaN,23.999,   NaN,17.05,1012.59,86.93,16.81,43.1,43.6,3.2,2.1,298.8,288.7,3.2,2.2,NaN, NaN,15.0,245.7,NaN,1184041431,NaN,2,0.7,015831,   NaN,245.7,     NaN,      NaN,0.53,NaN,NaN,19.106, NaN,NaN,0.5, NaN, NaN
20070710,091842,1.822,     NaN,      NaN,17.0000,33.7420,0.7500,1070313,2.3,17.379,33.722,43.796,-7.32,NaN,4.368,17.081, NaN, NaN,24.443,   NaN,15.54,1012.62,91.67,15.23,12.1,8.2,3.2,3.2,290.9,288.1,1.9,2.3,NaN, NaN,13.0,284.3,NaN,1184059131,NaN,2,1.1,033531,   NaN,284.4,     NaN,      NaN,0.82,NaN,NaN,17.383, NaN,NaN,0.3, NaN, NaN
20070710,130945,1.564,     NaN,      NaN,15.7400,33.7080,2.0700,1084172,2.3,16.077,33.683,42.499, 0.00,NaN,7.119,15.948, NaN, NaN,24.717,   NaN,15.44,1013.19,92.72,15.25,221.1,221.6,4.8,4.0,174.4,180.7,5.2,4.0,22.4, NaN,15.0,320.7,NaN,1184072990,NaN,2,0.4,047390,   NaN,321.0,     NaN,      NaN,0.65,NaN,NaN,16.081, NaN,NaN,1.5, NaN, NaN
20070710,145725,1.182,     NaN,      NaN,15.3400,33.7040,2.5400,1090622,2.3,15.696,33.679,42.130,161.99,NaN,8.538,15.615, NaN, NaN,24.801,   NaN,15.96,1013.85,89.69,15.74,249.9,238.4,3.5,1.4,159.9,157.5,3.1,2.4,NaN, NaN,16.0,271.5,NaN,1184079440,NaN,2,0.5,053840,   NaN,271.4,     NaN,      NaN,0.34,NaN,NaN,15.700, NaN,NaN,0.2, NaN, NaN
20070710,190145,0.908,     NaN,      NaN,14.3300,33.7190,2.9800,1105292,2.3,14.788,33.691,41.275,2367.44,NaN,5.188,14.657, NaN, NaN,25.008,   NaN,15.07,1014.38,93.05,14.87,277.0,286.1,3.7,2.2,209.7,214.4,3.7,2.2,NaN, NaN,17.0,284.3,NaN,1184094112,NaN,2,0.7,068512,   NaN,284.1,     NaN,      NaN,0.86,NaN,NaN,14.792, NaN,NaN,1.1, NaN, NaN
20070710,221856,1.668,     NaN,      NaN,14.0800,33.4180,0.4900,1117113,2.3,14.589,33.378,40.747,2592.74,NaN,1.401,14.570, NaN, NaN,24.805,   NaN,15.33,1013.63,93.59,14.94,295.2,302.5,2.3,2.0,191.4,198.0,3.0,1.8,NaN, NaN,16.0,269.6,NaN,1184105933,NaN,2,1.0,080333,   NaN,269.7,     NaN,      NaN,0.50,NaN,NaN,14.593, NaN,NaN,-0.1, NaN, NaN
20070711,055816,2.017,     NaN,      NaN,16.3000,33.2120,0.1200,1144683,2.3,16.669,33.187,42.499,-9.03,NaN,2.020,16.492, NaN, NaN,24.200,   NaN,16.70,1014.63,94.84,16.53,257.5,279.1,1.1,0.7,140.1,159.9,1.3,0.9,NaN, NaN,17.0,278.4,NaN,1184133502,NaN,2,0.9,021503,   NaN,278.4,     NaN,      NaN,0.23,NaN,NaN,16.673, NaN,NaN,1.3, NaN, NaN
20070711,124534,1.791,     NaN,      NaN,16.6200,32.9930,0.1300,1169102,2.3,17.189,32.969,42.741,-9.06,NaN,1.311,16.946, NaN, NaN,23.913,   NaN,17.22,1014.54,91.76,16.95,295.6,301.6,2.2,1.8,126.6,118.0,2.0,1.6,NaN, NaN,16.0,204.1,NaN,1184157921,NaN,2,0.6,045921,   NaN,204.1,     NaN,      NaN,0.13,NaN,NaN,17.193, NaN,NaN,1.3, NaN, NaN
20070711,194216,1.042,     NaN,      NaN,17.4000,33.0950,0.0900,1194123,2.3,17.807,33.067,43.444,2136.26,NaN,0.663,17.557, NaN, NaN,23.841,   NaN,17.93,1016.87,87.73,17.59,267.2,281.5,3.1,1.5,163.0,152.9,3.9,1.3,NaN, NaN,15.0,264.4,NaN,1184182942,NaN,2,1.0,070942,   NaN,264.7,     NaN,      NaN,0.32,NaN,NaN,17.811, NaN,NaN,0.6, NaN, NaN
20070712,015245,1.223,     NaN,      NaN,18.0100,  NaN,  NaN,1216353,2.3,18.404,33.189,44.159,427.46,NaN,0.727,18.181, NaN, NaN,23.786,   NaN,18.55,1015.34,84.36,18.30,246.4,245.5,3.1,1.4,176.3,176.0,3.4,1.2,NaN, NaN,18.0,295.5,NaN,1184205172,NaN,2,0.7,006772,   NaN,295.6,     NaN,      NaN,0.37,NaN,NaN,18.408, NaN,NaN,2.3, NaN, NaN
20070712,080901,1.627,     NaN,      NaN,17.7300,33.2020,0.0600,1238912,2.3,18.069,33.177,43.823,-9.10,NaN,0.777,17.918, NaN, NaN,23.860,   NaN,18.22,1016.03,90.93,17.98,121.9,108.2,5.4,3.1,196.2,179.3,4.9,2.6,NaN, NaN,14.0,65.3,NaN,1184227730,NaN,2,0.8,029331,   NaN,65.3,     NaN,      NaN,0.37,NaN,NaN,18.073, NaN,NaN,0.6, NaN, NaN
20070712,135018,1.466,     NaN,      NaN,17.5500,32.9130,0.0900,1259402,2.3,17.890,32.889,43.313,63.07,NaN,1.070,17.735, NaN, NaN,23.682,   NaN,18.13,1016.74,90.39,17.96,107.9,99.9,2.5,2.6,210.4,203.1,4.1,2.4,NaN, NaN,15.0,90.9,NaN,1184248220,NaN,2,0.8,049820,   NaN,90.7,     NaN,      NaN,0.33,NaN,NaN,17.894, NaN,NaN,0.9, NaN, NaN
20070712,193300,1.867,     NaN,      NaN,17.5800,32.8950,0.1100,1279952,2.3,17.892,32.870,43.292,2215.72,NaN,1.261,17.814, NaN, NaN,23.661,   NaN,21.60,1017.93,57.50,22.72,197.4,177.1,0.9,0.7,144.9,153.3,0.8,1.3,NaN, NaN,13.0,345.9,NaN,1184268770,NaN,2,0.9,070370,   NaN,345.8,     NaN,      NaN,0.29,NaN,NaN,17.896, NaN,NaN,1.7, NaN, NaN
20070713,011621,1.196,     NaN,      NaN,17.0700,33.0950,  NaN,1300563,2.3,18.076,33.053,43.701,1227.70,NaN,3.457,18.191, NaN, NaN,23.902,   NaN,19.63,1017.07,70.68,19.60,277.4,281.8,1.3,1.0,288.1,290.8,1.1,1.1,NaN, NaN,17.0,45.3,NaN,1184289381,NaN,2,1.0,004581,   NaN,45.6,     NaN,      NaN,0.58,NaN,NaN,18.080, NaN,NaN,1.3, NaN, NaN
20070713,065950,2.225,     NaN,      NaN,15.5900,33.7300,0.8200,1321173,2.3,16.022,33.711,42.476,-9.14,NaN,5.110,15.908, NaN, NaN,24.752,   NaN,16.18,1017.63,95.00,16.04,247.8,246.0,2.1,1.8,327.2,321.2,2.1,2.0,NaN, NaN,14.0,93.4,NaN,1184309993,NaN,2,0.9,025193,   NaN,93.4,     NaN,      NaN,0.49,NaN,NaN,16.026, NaN,NaN,1.9, NaN, NaN
20070713,105950,1.737,     NaN,      NaN,16.3900,33.7600,1.9100,1335572,2.3,16.750,33.732,43.201,-7.95,NaN,8.988,16.553, NaN, NaN,24.600,   NaN,16.70,1016.25,92.04,16.32,265.5,54.8,4.8,0.8,319.3,348.9,4.8,2.0,NaN, NaN,13.0,49.9,NaN,1184324392,NaN,2,0.4,039592,   NaN,49.8,     NaN,      NaN,0.84,NaN,NaN,16.754, NaN,NaN,1.9, NaN, NaN